This is the latest recevied weather packets stored in our database for station/object DB8NZ-11. If no packets are shown the sender has not sent any weather packets the latest 10 day(s).
| Time | Temp. | Humidity | Pressure | Rain* | Wind** | Luminosity | Snow |
|---|---|---|---|---|---|---|---|
| 1777932330 | 17.22° C | 60% | 1017.1 hPa | - | - | - | - |
| 1777931429 | 17.22° C | 59% | 1017.1 hPa | - | - | - | - |
| 1777930529 | 17.78° C | 59% | 1017.2 hPa | - | - | - | - |
| 1777929713 | 17.78° C | 59% | 1017.2 hPa | - | - | - | - |
| 1777928812 | 17.78° C | 59% | 1017.2 hPa | - | - | - | - |
| 1777927912 | 17.78° C | 59% | 1017.1 hPa | - | - | - | - |
| 1777927012 | 17.78° C | 60% | 1017.1 hPa | - | - | - | - |
| 1777926112 | 18.33° C | 58% | 1017.4 hPa | - | - | - | - |
| 1777925211 | 18.33° C | 58% | 1017.5 hPa | - | - | - | - |
| 1777924311 | 18.89° C | 54% | 1017.4 hPa | - | - | - | - |
| 1777923411 | 18.89° C | 53% | 1017.4 hPa | - | - | - | - |
| 1777922511 | 18.89° C | 54% | 1017 hPa | - | - | - | - |
| 1777921611 | 19.44° C | 54% | 1016.8 hPa | - | - | - | - |
| 1777920711 | 20° C | 53% | 1016.7 hPa | - | - | - | - |
| 1777919811 | 20° C | 52% | 1016.7 hPa | - | - | - | - |
| 1777918911 | 20.56° C | 50% | 1016.7 hPa | - | - | - | - |
| 1777918011 | 21.11° C | 49% | 1016.5 hPa | - | - | - | - |
| 1777917111 | 22.22° C | 45% | 1016.5 hPa | - | - | - | - |
| 1777916211 | 22.78° C | 44% | 1016.6 hPa | - | - | - | - |
| 1777915310 | 23.33° C | 41% | 1016.6 hPa | - | - | - | - |
| 1777914410 | 24.44° C | 40% | 1016.6 hPa | - | - | - | - |
| 1777913510 | 24.44° C | 38% | 1016.6 hPa | - | - | - | - |
| 1777912610 | 23.89° C | 36% | 1016.6 hPa | - | - | - | - |
| 1777911710 | 23.89° C | 37% | 1016.5 hPa | - | - | - | - |
| 1777910810 | 24.44° C | 36% | 1016.4 hPa | - | - | - | - |
* Rain since midnight (hover to see other rain measurements)
** Current wind speed in m/s (hover to see current wind gust speed)